FlightSource - Aviation Photo Database

World Wide Airport Lookup


Search by ICAO
Or
Search by City

FlightSource.ca - Aviation Photo Database - Buffalo Niagara International Airport Information
Airport Identification
Name: Buffalo Niagara International Airport
ICAO: KBUF
IATA: BUF
Airport Location
City: Buffalo
Region: NY
Country: United States
Continent: North America
Latitude: 42.9405
Longitude: -78.7322
Airport Information
Type: Large Airport
Elevation: 724 Feet ASL
Flight Status: KBUF
More Info: KBUF
Airport Weather    
Metar: KBUF 230254Z 27006KT 10SM BKN036 M02/M08 A3020 RMK AO2 SLP236 T10221083 58005 $
TAF:


Advertisement